Location: Casaglia
(44.0333°N, 11.5167°E)
Time: 19:07:15
(UTC+00:00)

CZ-4C R/B - Pass Details

Date: 07 June 2020
Orbit: 464 x 636 km, 98.0° (Epoch: 02 July)

Event Time Altitude Azimuth Distance (km) Brightness Sun altitude
Exits shadow 00:38:55 35° 147° (SSE) 1,031 4.4 -20.3°
Maximum altitude 00:40:42 68° 74° (ENE) 684 3.8 -20.2°
Drops below altitude 10° 00:45:08 10° 352° (N) 2,034 7.1 -19.9°
Sets 00:47:21 0° 350° (N) 2,944 8.0 -19.8°
